Location: Brachstadt
(48.6975°N, 10.6755°E)
Time: 13:53:51
(UTC+00:00)

Envisat - Pass Details

Date: 01 December 2022
Orbit: 763 x 765 km, 98.2° (Epoch: 06 February)

Event Time Altitude Azimuth Distance (km) Brightness Sun altitude
Rises 02:15:03 0° 28° (NNE) 3,245 6.7 -44.0°
Reaches altitude 10° 02:18:11 10° 48° (NE) 2,313 6.0 -43.5°
Enters shadow 02:18:36 11° 52° (NE) 2,218 5.9 -43.5°
